Showing default

KL-ALPHA A, 44785

Orbit data source: Space-Track

KL-ALPHA A, 44785 is a German payload satellite in LEO that was launched on Sun, 17 Nov 2019 UTC via a KUAIZHOU-1A launch vehicle from the Jiuquan Satellite Launch Center, China (JSC). Payload-class satellites include a variety of spacecraft equipped with specific instruments for various scientific and technological missions. These include communications satellites like Starlink; space stations such as the ISS; scientific satellites like the Hubble; Earth observation satellites from companies like Planet Labs, Umbra, and HawkEye 360; GPS; miniature CubeSats for education and research; and military/defense satellites.

Loading next visibility...
Identifier
44785, 2019-077A
Orbit
LEO
Country
Flag of DEDE / GER
Related business
Manufacturer
IMI/CAS
Mission
Operational Commercial Communications
Bus & Motor
KLA, Unknown motor
Mass
70 kg wet, ~65 kg dry
Launch date (UTC)
2019-11-17 (6 years ago)
Launch vehicle
KUAIZHOU-1A
Launch site
Jiuquan Satellite Launch Center, China (JSC)
Object type
Payload
Rocket body
Debris
Shape & HBR
Box + 1 Pan, Unknown HBR
Radar Cross Section
0.900 m², Medium (>0.1 m² and < 1m²)

Expand to show TLE details & history
Last TLE update: 4 hours ago

TLE from 4 hours ago
0 KL-ALPHA A
1 44785U 19077A   26095.29118258  .00000181  00000-0  24059-3 0  9993
2 44785  88.9214 230.5369 0009915 330.6334  29.4261 13.56035071315853
Epoch: 2026-04-05T06:59Z
TLE epoch observation values (Epoch: 2026-04-05T06:59:18.174Z)
Latitude
-0.00011°
Longitude
-67.88754°
Altitude
1,046.682 km
Speed
7.332 km/s
True Right ascension
15h 22m 08s
True Declination
0° 00' 00"
Sunlit
Object was in full shadow at epoch
Visualization orbit readout
Latitude
Unknown
Longitude
Unknown
Altitude
Unknown
Speed
Unknown
Apparent Right ascension
Unknown
Apparent Declination
Unknown
Sunlit
N/A
Visualization observer readout
Local Sidereal Time
16:42:41
Azimuth
Unknown
Elevation
Unknown
Doppler factor
Unknown
Orbital elements
Apogee altitude
1,054.543 km
Perigee altitude
1,039.819 km
Semi-major axis
7,425.318 km
Eccentricity
0.00099
Inclination
88.9214°
RAAN
230.5369°
Arg. of periapsis
330.6334°
True anomaly
29.48198°
Mean anomaly
29.4261°
Eccentric anomaly
29.45403°
Mean motion
3.39212 °/min
Orbital period
106.13 mins
BSTAR
0.00024059
Loading maneuver chart data...
Computing Atmospheric mass density...
Loading historical data...
Loading historical data...
Loading historical data...
Loading historical data...
Loading historical data...
Loading historical data...
Loading historical data...
Other satellites on launch #77 in the year 2019 (2019-11-17 UTC)

Documentation

Showing up to 5 results
|